Location: *
(50.5492°N, 7.7469°E)
Time: 00:05:07
(UTC+00:00)

Cosmos 2016 Rocket - Pass Details

Date: 21 October 2019
Orbit: 948 x 1000 km, 83.0° (Epoch: 19 November)

Event Time Altitude Azimuth Distance (km) Brightness Sun altitude
Rises 18:02:31 0° 353° (N) 3,685 7.1 -16.1°
Reaches altitude 10° 18:05:11 10° 0° (N) 2,742 6.4 -16.5°
Maximum altitude 18:11:10 44° 72° (ENE) 1,344 4.3 -17.4°
Enters shadow 18:15:25 19° 135° (SE) 2,177 5.4 -18.1°
